| time (UTC) | temp F | wind direction | speed MPH | gust MPH | rain 1hr in | rain 24hr in | rain mn in | humidity % | barometer mb |
| 20260508023022 | 41 | 180 | 5.0 | 7.0 | 0.00 | 0.00 | 0.00 | 64 | 1015.5 |
| 20260508022024 | 41 | 248 | 5.0 | 6.0 | 0.00 | 0.00 | 0.00 | 65 | 1015.5 |
| 20260508021021 | 41 | 248 | 5.0 | 5.0 | 0.00 | 0.00 | 0.00 | 64 | 1015.5 |
| 20260508020022 | 41 | 180 | 2.0 | 3.0 | 0.00 | 0.00 | 0.00 | 64 | 1015.4 |
| 20260508015021 | 41 | 158 | 1.0 | 2.0 | 0.00 | 0.00 | 0.00 | 62 | 1015.3 |
| 20260508014022 | 41 | 180 | 4.0 | 5.0 | 0.00 | 0.00 | 0.00 | 63 | 1015.2 |
| 20260508013023 | 42 | 135 | 1.0 | 2.0 | 0.00 | 0.00 | 0.00 | 62 | 1015.2 |
| 20260508012022 | 42 | 158 | 4.0 | 5.0 | 0.00 | 0.00 | 0.00 | 62 | 1015.2 |
| 20260508011022 | 42 | 135 | 1.0 | 2.0 | 0.00 | 0.00 | 0.00 | 61 | 1015.0 |
| 20260508010023 | 43 | 23 | 2.0 | 3.0 | 0.00 | 0.00 | 0.00 | 63 | 1015.0 |
| 20260508005022 | 43 | 90 | 1.0 | 2.0 | 0.00 | 0.00 | 0.00 | 64 | 1014.7 |
| 20260508004024 | 43 | 90 | 1.0 | 2.0 | 0.00 | 0.00 | 0.00 | 63 | 1014.7 |
| 20260508003022 | 43 | 180 | 3.0 | 4.0 | 0.00 | 0.00 | 0.00 | 62 | 1014.5 |
| 20260508002022 | 44 | 113 | 2.0 | 2.0 | 0.00 | 0.00 | 0.00 | 62 | 1014.5 |
| 20260508001022 | 45 | 158 | 4.0 | 5.0 | 0.00 | 0.00 | 0.00 | 61 | 1014.4 |
| 20260508000022 | 45 | 113 | 3.0 | 6.0 | 0.00 | 0.00 | 0.00 | 59 | 1014.2 |
| 20260507235022 | 46 | 68 | 2.0 | 2.0 | 0.00 | 0.00 | 0.00 | 59 | 1014.1 |
| 20260507234021 | 46 | 113 | 3.0 | 3.0 | 0.00 | 0.00 | 0.00 | 59 | 1014.0 |
| 20260507233024 | 47 | 180 | 3.0 | 5.0 | 0.00 | 0.00 | 0.00 | 59 | 1013.9 |
| 20260507232021 | 47 | 113 | 3.0 | 5.0 | 0.00 | 0.00 | 0.00 | 59 | 1013.8 |
| 20260507231024 | 47 | 68 | 2.0 | 3.0 | 0.00 | 0.00 | 0.00 | 59 | 1013.5 |
| 20260507230021 | 48 | 158 | 3.0 | 4.0 | 0.00 | 0.00 | 0.00 | 58 | 1013.4 |
| 20260507225022 | 49 | 225 | 3.0 | 5.0 | 0.00 | 0.00 | 0.00 | 56 | 1013.4 |
| 20260507224022 | 51 | 135 | 3.0 | 5.0 | 0.00 | 0.00 | 0.00 | 53 | 1013.3 |
| 20260507223021 | 51 | 113 | 2.0 | 3.0 | 0.00 | 0.00 | 0.00 | 55 | 1013.2 |
| 20260507222022 | 51 | 135 | 3.0 | 5.0 | 0.00 | 0.00 | 0.00 | 54 | 1013.1 |
| 20260507221021 | 52 | 203 | 9.0 | 10.0 | 0.00 | 0.00 | 0.00 | 53 | 1013.0 |
| 20260507220022 | 53 | 203 | 5.0 | 6.0 | 0.00 | 0.00 | 0.00 | 53 | 1012.9 |
| 20260507215022 | 53 | 158 | 6.0 | 9.0 | 0.00 | 0.00 | 0.00 | 54 | 1012.7 |
| 20260507214021 | 54 | 225 | 0.0 | 1.0 | 0.00 | 0.00 | 0.00 | 59 | 1012.7 |
| 20260507213022 | 53 | 135 | 3.0 | 3.0 | 0.00 | 0.00 | 0.00 | 66 | 1012.8 |
| 20260507212021 | 53 | 203 | 5.0 | 7.0 | 0.00 | 0.00 | 0.00 | 80 | 1012.7 |
| 20260507211022 | 52 | 225 | 7.0 | 10.0 | 0.00 | 0.00 | 0.00 | 77 | 1012.5 |
| 20260507210021 | 50 | 135 | 2.0 | 3.0 | 0.00 | 0.00 | 0.00 | 90 | 1012.6 |
| 20260507205024 | 51 | 113 | 3.0 | 5.0 | 0.00 | 0.00 | 0.00 | 89 | 1012.5 |
| 20260507204022 | 50 | 135 | 2.0 | 3.0 | 0.00 | 0.00 | 0.00 | 92 | 1012.5 |
| 20260507203021 | 51 | 113 | 4.0 | 7.0 | 0.00 | 0.00 | 0.00 | 88 | 1012.6 |
| 20260507202024 | 54 | 135 | 1.0 | 2.0 | 0.00 | 0.00 | 0.00 | 88 | 1012.5 |
| 20260507201021 | 53 | 90 | 1.0 | 2.0 | 0.00 | 0.00 | 0.00 | 90 | 1012.6 |
| 20260507200022 | 51 | 180 | 2.0 | 2.0 | 0.00 | 0.00 | 0.00 | 93 | 1012.7 |
| 20260507195022 | 51 | 23 | 3.0 | 4.0 | 0.00 | 0.00 | 0.00 | 91 | 1012.8 |
| 20260507194022 | 48 | 203 | 2.0 | 3.0 | 0.00 | 0.00 | 0.00 | 98 | 1012.8 |
| 20260507193021 | 47 | 113 | 3.0 | 4.0 | 0.00 | 0.00 | 0.00 | 98 | 1012.9 |
| 20260507192022 | 47 | 180 | 4.0 | 7.0 | 0.00 | 0.00 | 0.00 | 98 | 1013.0 |
| 20260507191024 | 47 | 248 | 4.0 | 5.0 | 0.00 | 0.00 | 0.00 | 99 | 1013.2 |
| 20260507190021 | 47 | 248 | 5.0 | 5.0 | 0.00 | 0.00 | 0.00 | 98 | 1013.2 |
| 20260507185024 | 47 | 180 | 2.0 | 3.0 | 0.00 | 0.00 | 0.00 | 98 | 1013.3 |
| 20260507184021 | 47 | 90 | 1.0 | 2.0 | 0.00 | 0.00 | 0.00 | 98 | 1013.3 |
| 20260507183022 | 48 | 68 | 2.0 | 2.0 | 0.00 | 0.00 | 0.00 | 97 | 1013.5 |
| 20260507182022 | 49 | 45 | 2.0 | 3.0 | 0.00 | 0.00 | 0.00 | 98 | 1013.5 |
| 20260507181021 | 49 | 203 | 1.0 | 2.0 | 0.00 | 0.00 | 0.00 | 97 | 1013.5 |
| 20260507180022 | 49 | 293 | 3.0 | 4.0 | 0.00 | 0.00 | 0.00 | 97 | 1013.4 |
| 20260507175022 | 50 | 113 | 2.0 | 3.0 | 0.00 | 0.00 | 0.00 | 99 | 1013.4 |
| 20260507174022 | 49 | 45 | 1.0 | 2.0 | 0.00 | 0.00 | 0.00 | 99 | 1013.5 |
| 20260507173021 | 48 | 158 | 3.0 | 5.0 | 0.00 | 0.00 | 0.00 | 99 | 1013.6 |
| 20260507172022 | 48 | 45 | 4.0 | 5.0 | 0.00 | 0.00 | 0.00 | 99 | 1013.7 |
| 20260507171022 | 46 | 270 | 1.0 | 2.0 | 0.00 | 0.00 | 0.00 | 99 | 1013.7 |
| 20260507170021 | 45 | 113 | 1.0 | 2.0 | 0.00 | 0.00 | 0.00 | 99 | 1014.1 |
| 20260507165022 | 45 | 135 | 2.0 | 2.0 | 0.00 | 0.00 | 0.00 | 99 | 1014.2 |
| 20260507164021 | 47 | 158 | 2.0 | 3.0 | 0.00 | 0.00 | 0.00 | 99 | 1014.1 |
| 20260507163023 | 44 | 158 | 1.0 | 2.0 | 0.00 | 0.00 | 0.00 | 99 | 1014.3 |
| 20260507162022 | 43 | 248 | 2.0 | 3.0 | 0.00 | 0.00 | 0.00 | 99 | 1014.4 |
| 20260507161022 | 43 | 203 | 1.0 | 2.0 | 0.00 | 0.00 | 0.00 | 99 | 1014.7 |
| 20260507160022 | 44 | 180 | 0.0 | 2.0 | 0.00 | 0.00 | 0.00 | 99 | 1014.6 |
| 20260507155024 | 42 | 45 | 2.0 | 2.0 | 0.00 | 0.00 | 0.00 | 99 | 1014.7 |
| 20260507154022 | 42 | 315 | 0.0 | 1.0 | 0.00 | 0.00 | 0.00 | 99 | 1014.6 |
| 20260507153022 | 42 | 180 | 1.0 | 2.0 | 0.00 | 0.00 | 0.00 | 99 | 1014.9 |
| 20260507152022 | 42 | 23 | 1.0 | 2.0 | 0.00 | 0.00 | 0.00 | 99 | 1014.8 |
| 20260507151022 | 42 | 293 | 2.0 | 2.0 | 0.00 | 0.00 | 0.00 | 99 | 1015.0 |
| 20260507150023 | 42 | 23 | 2.0 | 2.0 | 0.00 | 0.00 | 0.00 | 99 | 1014.9 |
| 20260507145022 | 42 | 23 | 3.0 | 3.0 | 0.00 | 0.00 | 0.00 | 99 | 1014.8 |
| 20260507144021 | 42 | 23 | 3.0 | 5.0 | 0.00 | 0.00 | 0.00 | 99 | 1014.8 |
| 20260507143021 | 42 | 23 | 2.0 | 3.0 | 0.00 | 0.00 | 0.00 | 99 | 1014.9 |
| 20260507142022 | 41 | 315 | 2.0 | 5.0 | 0.00 | 0.00 | 0.00 | 99 | 1015.0 |
| 20260507141024 | 42 | 23 | 1.0 | 2.0 | 0.00 | 0.00 | 0.00 | 99 | 1015.4 |
| 20260507140022 | 42 | 315 | 1.0 | 2.0 | 0.00 | 0.00 | 0.00 | 99 | 1015.4 |
| 20260507135021 | 42 | 23 | 2.0 | 2.0 | 0.00 | 0.00 | 0.00 | 99 | 1015.4 |
| 20260507134022 | 42 | 360 | 3.0 | 4.0 | 0.00 | 0.00 | 0.00 | 99 | 1015.5 |
| 20260507133022 | 42 | 360 | 1.0 | 2.0 | 0.00 | 0.00 | 0.00 | 99 | 1015.4 |
| 20260507132021 | 42 | 360 | 2.0 | 3.0 | 0.00 | 0.00 | 0.00 | 99 | 1015.5 |
| 20260507131024 | 43 | 248 | 1.0 | 1.0 | 0.00 | 0.00 | 0.00 | 99 | 1015.6 |
| 20260507130023 | 43 | 338 | 1.0 | 2.0 | 0.00 | 0.00 | 0.00 | 99 | 1015.5 |
| 20260507125022 | 43 | 23 | 2.0 | 3.0 | 0.00 | 0.00 | 0.00 | 99 | 1015.5 |
| 20260507124021 | 43 | 248 | 2.0 | 3.0 | 0.00 | 0.00 | 0.00 | 99 | 1015.7 |
| 20260507123022 | 44 | 45 | 2.0 | 2.0 | 0.00 | 0.00 | 0.00 | 99 | 1015.6 |
| 20260507122021 | 45 | 68 | 2.0 | 2.0 | 0.00 | 0.00 | 0.00 | 99 | 1015.6 |
| 20260507121022 | 44 | 248 | 1.0 | 2.0 | 0.00 | 0.00 | 0.00 | 99 | 1015.5 |
| 20260507120022 | 45 | 180 | 1.0 | 2.0 | 0.00 | 0.00 | 0.00 | 99 | 1015.5 |
| 20260507115022 | 45 | 68 | 1.0 | 2.0 | 0.00 | 0.00 | 0.00 | 99 | 1015.3 |
| 20260507114024 | 45 | 225 | 0.0 | 0.0 | 0.00 | 0.00 | 0.00 | 99 | 1015.4 |
| 20260507113023 | 44 | 203 | 1.0 | 2.0 | 0.00 | 0.00 | 0.00 | 99 | 1015.4 |
| 20260507112022 | 45 | 248 | 1.0 | 2.0 | 0.00 | 0.00 | 0.00 | 99 | 1015.5 |
| 20260507111021 | 45 | 203 | 3.0 | 4.0 | 0.00 | 0.00 | 0.00 | 99 | 1015.1 |
| 20260507110022 | 45 | 135 | 3.0 | 5.0 | 0.00 | 0.00 | 0.00 | 99 | 1015.3 |
| 20260507105024 | 45 | 270 | 1.0 | 2.0 | 0.00 | 0.00 | 0.00 | 99 | 1015.0 |
| 20260507104022 | 45 | 68 | 2.0 | 2.0 | 0.00 | 0.00 | 0.00 | 99 | 1014.8 |
| 20260507103022 | 45 | 158 | 0.0 | 1.0 | 0.00 | 0.00 | 0.00 | 99 | 1014.8 |
| 20260507102022 | 46 | 158 | 0.0 | 1.0 | 0.00 | 0.00 | 0.00 | 99 | 1014.9 |
| 20260507101023 | 46 | 135 | 1.0 | 2.0 | 0.00 | 0.00 | 0.00 | 99 | 1014.9 |
| 20260507100022 | 46 | 225 | 4.0 | 5.0 | 0.00 | 0.00 | 0.00 | 99 | 1015.2 |
| 20260507095021 | 46 | 203 | 2.0 | 3.0 | 0.00 | 0.00 | 0.00 | 99 | 1015.1 |
| 20260507094022 | 46 | 203 | 4.0 | 5.0 | 0.00 | 0.00 | 0.00 | 99 | 1015.1 |
| 20260507093026 | 45 | 225 | 5.0 | 5.0 | 0.00 | 0.00 | 0.00 | 99 | 1015.0 |
| 20260507092022 | 45 | 180 | 0.0 | 1.0 | 0.00 | 0.00 | 0.00 | 99 | 1015.3 |
| 20260507091022 | 45 | 180 | 2.0 | 2.0 | 0.00 | 0.00 | 0.00 | 99 | 1014.9 |
| 20260507090022 | 45 | 158 | 3.0 | 3.0 | 0.00 | 0.00 | 0.00 | 99 | 1015.3 |
| 20260507085023 | 46 | 180 | 1.0 | 2.0 | 0.00 | 0.00 | 0.00 | 99 | 1015.2 |
| 20260507084021 | 46 | 135 | 1.0 | 2.0 | 0.00 | 0.00 | 0.00 | 99 | 1015.2 |
| 20260507083022 | 46 | 23 | 3.0 | 4.0 | 0.00 | 0.00 | 0.00 | 99 | 1015.0 |
| 20260507082022 | 47 | 203 | 2.0 | 2.0 | 0.00 | 0.00 | 0.00 | 99 | 1014.9 |
| 20260507081021 | 47 | 180 | 1.0 | 2.0 | 0.00 | 0.00 | 0.00 | 99 | 1015.1 |
| 20260507080025 | 47 | 180 | 2.0 | 2.0 | 0.00 | 0.00 | 0.00 | 99 | 1015.1 |
| 20260507075022 | 47 | 180 | 2.0 | 2.0 | 0.00 | 0.00 | 0.00 | 99 | 1015.2 |
| 20260507074022 | 48 | 68 | 1.0 | 2.0 | 0.00 | 0.00 | 0.00 | 99 | 1015.1 |
| 20260507073022 | 48 | 360 | 4.0 | 5.0 | 0.00 | 0.00 | 0.00 | 99 | 1015.1 |
| 20260507072021 | 48 | 23 | 5.0 | 5.0 | 0.00 | 0.00 | 0.00 | 99 | 1015.2 |
| 20260507071022 | 48 | 113 | 1.0 | 2.0 | 0.00 | 0.00 | 0.00 | 99 | 1015.3 |
| 20260507070022 | 48 | 45 | 3.0 | 3.0 | 0.00 | 0.00 | 0.00 | 99 | 1014.7 |
| 20260507065021 | 48 | 90 | 3.0 | 4.0 | 0.00 | 0.00 | 0.00 | 99 | 1014.6 |
| 20260507064022 | 48 | 225 | 1.0 | 2.0 | 0.00 | 0.00 | 0.00 | 99 | 1014.8 |
| 20260507063022 | 49 | 68 | 5.0 | 9.0 | 0.00 | 0.00 | 0.00 | 99 | 1014.5 |
| 20260507062021 | 49 | 68 | 4.0 | 5.0 | 0.00 | 0.00 | 0.00 | 99 | 1014.7 |
| 20260507061022 | 49 | 158 | 2.0 | 5.0 | 0.00 | 0.00 | 0.00 | 99 | 1014.9 |
| 20260507060023 | 49 | 225 | 6.0 | 10.0 | 0.00 | 0.00 | 0.00 | 99 | 1014.8 |
| 20260507055024 | 49 | 180 | 4.0 | 7.0 | 0.00 | 0.00 | 0.00 | 99 | 1015.2 |
| 20260507054023 | 49 | 158 | 13.0 | 18.0 | 0.00 | 0.00 | 0.00 | 99 | 1015.5 |
| 20260507053022 | 50 | 248 | 12.0 | 14.0 | 0.00 | 0.00 | 0.00 | 99 | 1015.6 |
| 20260507052021 | 50 | 225 | 3.0 | 5.0 | 0.00 | 0.00 | 0.00 | 99 | 1015.6 |
| 20260507051022 | 50 | 180 | 6.0 | 8.0 | 0.00 | 0.00 | 0.00 | 99 | 1015.5 |
| 20260507050021 | 51 | 180 | 5.0 | 6.0 | 0.00 | 0.00 | 0.00 | 99 | 1015.3 |
| 20260507045022 | 51 | 203 | 5.0 | 8.0 | 0.00 | 0.00 | 0.00 | 99 | 1015.0 |
| 20260507044024 | 51 | 203 | 5.0 | 10.0 | 0.00 | 0.00 | 0.00 | 99 | 1015.0 |
| 20260507043022 | 51 | 270 | 8.0 | 13.0 | 0.00 | 0.00 | 0.00 | 99 | 1014.7 |
| 20260507042022 | 51 | 225 | 12.0 | 15.0 | 0.00 | 0.00 | 0.00 | 99 | 1014.7 |
| 20260507041021 | 51 | 203 | 7.0 | 8.0 | 0.00 | 0.00 | 0.00 | 99 | 1015.1 |
| 20260507040033 | 51 | 158 | 8.0 | 11.0 | 0.00 | 0.00 | 0.00 | 99 | 1015.6 |
| 20260507035022 | 51 | 180 | 4.0 | 5.0 | 0.00 | 0.00 | 0.00 | 99 | 1015.8 |
| 20260507034022 | 51 | 248 | 9.0 | 10.0 | 0.00 | 0.00 | 0.00 | 99 | 1015.9 |
| 20260507033022 | 51 | 113 | 5.0 | 7.0 | 0.00 | 0.00 | 0.00 | 99 | 1016.2 |
| 20260507032022 | 51 | 113 | 5.0 | 7.0 | 0.00 | 0.00 | 0.00 | 99 | 1016.2 |
| 20260507031023 | 51 | 248 | 4.0 | 6.0 | 0.00 | 0.00 | 0.00 | 99 | 1016.2 |
| 20260507030023 | 51 | 180 | 4.0 | 5.0 | 0.00 | 0.00 | 0.00 | 99 | 1016.1 |
| 20260507025022 | 52 | 360 | 5.0 | 9.0 | 0.00 | 0.00 | 0.00 | 99 | 1016.2 |
| 20260507024022 | 52 | 248 | 12.0 | 14.0 | 0.00 | 0.00 | 0.00 | 99 | 1015.9 |